This demonstration page uses our WeatherBlox Daily Observations layout. Learn more.

Left ArrowRight Arrow

Hourly Observations for June 6, 2017

Temp ( °F °C ) Dew Point ( °F °C ) Humidity (%) Winds ( mph kmh ) Pressure ( in mb ) Visibility ( mi km ) Precip ( " mm )
12:59 am 00:59 Mostly Cloudy 71 21.7 68 20 90 90 NW 6 9 29.70 1006 9 14 0.00 0.00
1:59 am 01:59 Mostly Cloudy 71 21.7 68 20 90 90 WNW 5 7 29.69 1005 10 16 0.00 0.00
2:59 am 02:59 Mostly Cloudy 69 20.6 65 18.3 87 87 NW 9 15 29.68 1005 10 16 0.00 0.00
3:59 am 03:59 Mostly Cloudy 69 20.6 65 18.3 87 87 NW 9 15 29.67 1005 9 14 0.00 0.00
4:59 am 04:59 Mostly Cloudy 69 20.6 66 18.9 90 90 NW 6 9 29.68 1005 8 13 0.00 0.00
5:59 am 05:59 Mostly Cloudy 69 20.6 66 18.9 90 90 W 5 7 29.71 1006 7 11 0.00 0.00
6:59 am 06:59 Mostly Cloudy with Mist and Fog 69 20.6 66 18.9 90 90 Calm 29.73 1007 6 10 0.00 0.00
7:59 am 07:59 Mostly Cloudy 71 21.7 66 18.9 84 84 W 3 6 29.73 1007 9 14 0.00 0.00
8:59 am 08:59 Mostly Cloudy 74 23.3 65 18.3 74 74 VRB 5 7 29.76 1008 10 16 0.00 0.00
9:59 am 09:59 Mostly Cloudy 76 24.4 65 18.3 69 69 VRB 5 7 29.76 1008 9 14 0.00 0.00
10:59 am 10:59 Partly Cloudy 77 25 65 18.3 66 66 NNE 10 17 29.76 1008 10 16 0.00 0.00
11:59 am 11:59 Mostly Cloudy 78 25.6 65 18.3 64 64 NE 9 15 29.76 1008 10 16 0.00 0.00
12:59 pm 12:59 Mostly Cloudy 79 26.1 63 17.2 58 58 NE 9 15 29.76 1008 10 16 0.00 0.00
1:59 pm 13:59 Mostly Cloudy 80 26.7 63 17.2 56 56 ENE 10 17 29.76 1008 10 16 0.00 0.00
2:59 pm 14:59 Mostly Cloudy 79 26.1 63 17.2 58 58 NE 14 22 29.75 1008 10 16 0.00 0.00
3:59 pm 15:59 Mostly Cloudy 79 26.1 62 16.7 56 56 ENE 9 15 29.75 1008 10 16 0.00 0.00
4:59 pm 16:59 Mostly Cloudy 79 26.1 63 17.2 58 58 NE 12 19 29.75 1007 10 16 0.00 0.00
5:59 pm 17:59 Mostly Cloudy 78 25.6 59 15 52 52 NE 12 19 29.76 1008 10 16 0.00 0.00
6:59 pm 18:59 Mostly Cloudy 76 24.4 57 13.9 52 52 NE 10 17 29.77 1008 10 16 0.00 0.00
7:59 pm 19:59 Mostly Cloudy 75 23.9 55 12.8 50 50 NE 12 19 29.79 1009 10 16 0.00 0.00
8:59 pm 20:59 Mostly Cloudy 75 23.9 54 12.2 48 48 ENE 6 9 29.80 1009 10 16 0.00 0.00
9:59 pm 21:59 Mostly Cloudy 77 25 54 12.2 45 45 E 7 11 29.81 1009 10 16 0.00 0.00
10:59 pm 22:59 Mostly Cloudy 74 23.3 54 12.2 50 50 E 6 9 29.81 1010 10 16 0.00 0.00
11:59 pm 23:59 Mostly Cloudy 74 23.3 56 13.3 54 54 NE 5 7 29.82 1010 10 16 0.00 0.00

Powered by AerisWeather